,,Stat6,,Stat2,,Stat8,,Stat9,,Stat10,,Wind1,,Wind1,
time,status,PA1M_AVG,status,PR1M_SUM,status,RH1M_AVG,status,SR1M_AVG,status,TA1M_AVG,status,W1dAve1m,status,W1sAve1m,
2005-02-21, 00:00:00,VALID,919.685,VALID,0,VALID,78.8687,VALID,0,VALID,21.2286,VALID,124,VALID,1.7649,
2005-02-21, 00:01:00,VALID,919.686,VALID,0,VALID,78.7428,VALID,-0.0509425,VALID,21.2615,VALID,134,VALID,1.59073,
2005-02-21, 00:02:00,VALID,919.685,VALID,0,VALID,78.6882,VALID,-0.0509425,VALID,21.2814,VALID,120,VALID,1.09357,
2005-02-21, 00:03:00,VALID,919.678,VALID,0,VALID,78.5635,VALID,-0.0169808,VALID,21.2741,VALID,125,VALID,1.52253,
2005-02-21, 00:04:00,VALID,919.674,VALID,0,VALID,78.2698,VALID,-0.0339617,VALID,21.2741,VALID,130,VALID,1.93594,
2005-02-21, 00:05:00,VALID,919.669,VALID,0,VALID,77.709,VALID,-0.0169808,VALID,21.3705,VALID,121,VALID,1.99673,
2005-02-21, 00:06:00,VALID,919.677,VALID,0,VALID,77.3657,VALID,0,VALID,21.4709,VALID,120,VALID,1.3564,
2005-02-21, 00:07:00,VALID,919.669,VALID,0,VALID,77.0414,VALID,0.0169808,VALID,21.5194,VALID,115,VALID,1.97456,
2005-02-21, 00:08:00,VALID,919.671,VALID,0,VALID,76.4819,VALID,0,VALID,21.5808,VALID,122,VALID,1.84775,
2005-02-21, 00:09:00,VALID,919.643,VALID,0,VALID,76.3815,VALID,0,VALID,21.6389,VALID,139,VALID,1.6503,
2005-02-21, 00:10:00,VALID,919.617,VALID,0,VALID,76.3306,VALID,0,VALID,21.6683,VALID,141,VALID,2.03356,
2005-02-21, 00:11:00,VALID,919.597,VALID,0,VALID,76.4044,VALID,0,VALID,21.658,VALID,137,VALID,1.88207,
2005-02-21, 00:12:00,VALID,919.582,VALID,0,VALID,76.7464,VALID,0.0339617,VALID,21.6351,VALID,134,VALID,1.89807,
2005-02-21, 00:13:00,VALID,919.563,VALID,0,VALID,77.0096,VALID,0.0509425,VALID,21.5805,VALID,146,VALID,2.18979,
2005-02-21, 00:14:00,VALID,919.569,VALID,0,VALID,76.7299,VALID,0,VALID,21.5643,VALID,152,VALID,2.43496,
2005-02-21, 00:15:00,VALID,919.563,VALID,0,VALID,76.7146,VALID,0.0339617,VALID,21.5705,VALID,138,VALID,2.15316,
2005-02-21, 00:16:00,VALID,919.563,VALID,0,VALID,76.4985,VALID,0.0169808,VALID,21.5864,VALID,133,VALID,2.36549,
2005-02-21, 00:17:00,VALID,919.573,VALID,0,VALID,76.5264,VALID,0.0509425,VALID,21.6055,VALID,143,VALID,1.81193,
2005-02-21, 00:18:00,VALID,919.556,VALID,0,VALID,76.6065,VALID,0.0849042,VALID,21.6023,VALID,145,VALID,1.69052,
2005-02-21, 00:19:00,VALID,919.54,VALID,0,VALID,76.9066,VALID,0.0509425,VALID,21.5931,VALID,141,VALID,1.88095,
2005-02-21, 00:20:00,VALID,919.529,VALID,0,VALID,77.3237,VALID,0.0679233,VALID,21.5377,VALID,150,VALID,1.81559,
2005-02-21, 00:21:00,VALID,919.52,VALID,0,VALID,77.5348,VALID,0.0679233,VALID,21.493,VALID,148,VALID,1.76376,
2005-02-21, 00:22:00,VALID,919.53,VALID,0,VALID,77.9303,VALID,0.0509425,VALID,21.4542,VALID,128,VALID,1.49521,
2005-02-21, 00:23:00,VALID,919.524,VALID,0,VALID,78.3652,VALID,0.0339617,VALID,21.3893,VALID,136,VALID,2.44097,
2005-02-21, 00:24:00,VALID,919.511,VALID,0,VALID,78.5508,VALID,0.0169808,VALID,21.3414,VALID,137,VALID,2.31032,
2005-02-21, 00:25:00,VALID,919.528,VALID,0,VALID,78.4211,VALID,0.0169808,VALID,21.3088,VALID,136,VALID,2.34546,
2005-02-21, 00:26:00,VALID,919.526,VALID,0,VALID,78.2228,VALID,0.0169808,VALID,21.3605,VALID,119,VALID,1.38542,
2005-02-21, 00:27:00,VALID,919.519,VALID,0,VALID,78.2049,VALID,0.0169808,VALID,21.3799,VALID,130,VALID,1.50798,
2005-02-21, 00:28:00,VALID,919.523,VALID,0,VALID,78.4605,VALID,0,VALID,21.3705,VALID,139,VALID,2.43928,
2005-02-21, 00:29:00,VALID,919.525,VALID,0,VALID,78.3932,VALID,0.0509425,VALID,21.3277,VALID,150,VALID,2.53746,
2005-02-21, 00:30:00,VALID,919.537,VALID,0,VALID,78.5432,VALID,0.0339617,VALID,21.3183,VALID,141,VALID,2.51055,
2005-02-21, 00:31:00,VALID,919.559,VALID,0,VALID,78.8522,VALID,0.0509425,VALID,21.2994,VALID,142,VALID,1.61871,
2005-02-21, 00:32:00,VALID,919.547,VALID,0,VALID,79.0315,VALID,0.0169808,VALID,21.2442,VALID,140,VALID,2.0303,
2005-02-21, 00:33:00,VALID,919.523,VALID,0,VALID,79.1943,VALID,0,VALID,21.2289,VALID,136,VALID,2.26935,
2005-02-21, 00:34:00,VALID,919.511,VALID,0,VALID,79.3481,VALID,0.0339617,VALID,21.1888,VALID,145,VALID,2.38009,
2005-02-21, 00:35:00,VALID,919.492,VALID,0,VALID,79.4791,VALID,0.0339617,VALID,21.1864,VALID,145,VALID,2.14897,
2005-02-21, 00:36:00,VALID,919.469,VALID,0,VALID,79.8034,VALID,-0.0339617,VALID,21.1444,VALID,135,VALID,1.81836,
2005-02-21, 00:37:00,VALID,919.454,VALID,0,VALID,79.858,VALID,-0.0679233,VALID,21.1007,VALID,150,VALID,1.61573,
2005-02-21, 00:38:00,VALID,919.445,VALID,0,VALID,79.4715,VALID,-0.101885,VALID,21.1002,VALID,143,VALID,2.10088,
2005-02-21, 00:39:00,VALID,919.437,VALID,0,VALID,79.1981,VALID,-0.101885,VALID,21.1554,VALID,139,VALID,2.14517,
2005-02-21, 00:40:00,VALID,919.435,VALID,0,VALID,79.2871,VALID,-0.0339617,VALID,21.203,VALID,128,VALID,1.86549,
2005-02-21, 00:41:00,VALID,919.397,VALID,0,VALID,79.4944,VALID,-0.0679233,VALID,21.1939,VALID,136,VALID,1.68132,
2005-02-21, 00:42:00,VALID,919.366,VALID,0,VALID,79.7182,VALID,-0.0679233,VALID,21.181,VALID,114,VALID,1.79754,
2005-02-21, 00:43:00,VALID,919.334,VALID,0,VALID,80.0679,VALID,-0.0679233,VALID,21.1126,VALID,129,VALID,1.24638,
2005-02-21, 00:44:00,VALID,919.312,VALID,0,VALID,80.3184,VALID,-0.0679233,VALID,21.0515,VALID,130,VALID,1.98224,
2005-02-21, 00:45:00,VALID,919.3,VALID,0,VALID,80.5053,VALID,-0.0339617,VALID,21.0095,VALID,137,VALID,1.8724,
2005-02-21, 00:46:00,VALID,919.289,VALID,0,VALID,80.6248,VALID,-0.0679233,VALID,20.9842,VALID,117,VALID,1.75618,
2005-02-21, 00:47:00,VALID,919.279,VALID,0,VALID,80.724,VALID,-0.0509425,VALID,20.9715,VALID,114,VALID,1.81098,
2005-02-21, 00:48:00,VALID,919.266,VALID,0,VALID,80.9783,VALID,-0.0849042,VALID,20.9225,VALID,102,VALID,1.59251,
2005-02-21, 00:49:00,VALID,919.229,VALID,0,VALID,81.604,VALID,-0.0849042,VALID,20.8453,VALID,120,VALID,1.62743,
2005-02-21, 00:50:00,VALID,919.21,VALID,0,VALID,82.2919,VALID,-0.0849042,VALID,20.7161,VALID,121,VALID,1.45632,
2005-02-21, 00:51:00,VALID,919.192,VALID,0,VALID,82.9239,VALID,-0.0509425,VALID,20.5861,VALID,123,VALID,1.22218,
2005-02-21, 00:52:00,VALID,919.17,VALID,0,VALID,83.3219,VALID,0,VALID,20.4758,VALID,121,VALID,1.75744,
2005-02-21, 00:53:00,VALID,919.183,VALID,0,VALID,83.505,VALID,0,VALID,20.4112,VALID,115,VALID,1.96911,
2005-02-21, 00:54:00,VALID,919.187,VALID,0,VALID,83.6805,VALID,0,VALID,20.3496,VALID,120,VALID,1.41797,
2005-02-21, 00:55:00,VALID,919.189,VALID,0,VALID,83.8254,VALID,0,VALID,20.3207,VALID,135,VALID,1.54669,
2005-02-21, 00:56:00,VALID,919.197,VALID,0,VALID,84.0887,VALID,0.0169808,VALID,20.285,VALID,132,VALID,1.50469,
2005-02-21, 00:57:00,VALID,919.213,VALID,0,VALID,84.3557,VALID,0.0339617,VALID,20.24,VALID,125,VALID,1.43655,
2005-02-21, 00:58:00,VALID,919.222,VALID,0,VALID,84.5477,VALID,0,VALID,20.2209,VALID,139,VALID,1.27981,
2005-02-21, 00:59:00,VALID,919.211,VALID,0,VALID,84.5147,VALID,0.0509425,VALID,20.1916,VALID,131,VALID,1.95397,
2005-02-21, 01:00:00,VALID,919.202,VALID,0,VALID,84.2934,VALID,0,VALID,20.2306,VALID,135,VALID,1.52489,
2005-02-21, 01:01:00,VALID,919.197,VALID,0,VALID,84.048,VALID,0.0509425,VALID,20.2594,VALID,128,VALID,1.32738,
2005-02-21, 01:02:00,VALID,919.18,VALID,0,VALID,83.6423,VALID,0.0339617,VALID,20.2984,VALID,127,VALID,1.39602,
2005-02-21, 01:03:00,VALID,919.17,VALID,0,VALID,83.3003,VALID,-0.0169808,VALID,20.3501,VALID,125,VALID,1.49014,
2005-02-21, 01:04:00,VALID,919.152,VALID,0,VALID,83.1591,VALID,0,VALID,20.4017,VALID,114,VALID,1.55948,
2005-02-21, 01:05:00,VALID,919.153,VALID,0,VALID,83.2418,VALID,0.0509425,VALID,20.4179,VALID,111,VALID,1.68843,
2005-02-21, 01:06:00,VALID,919.116,VALID,0,VALID,83.4579,VALID,-0.0339617,VALID,20.3764,VALID,101,VALID,1.4068,
2005-02-21, 01:07:00,VALID,919.106,VALID,0,VALID,83.7046,VALID,-0.0849042,VALID,20.3327,VALID,105,VALID,1.6582,
2005-02-21, 01:08:00,VALID,919.102,VALID,0,VALID,83.9119,VALID,-0.0849042,VALID,20.2845,VALID,108,VALID,1.59199,
2005-02-21, 01:09:00,VALID,919.07,VALID,0,VALID,84.1383,VALID,-0.0849042,VALID,20.2353,VALID,119,VALID,1.34766,
2005-02-21, 01:10:00,VALID,919.021,VALID,0,VALID,84.0696,VALID,-0.101885,VALID,20.2162,VALID,136,VALID,1.54241,
2005-02-21, 01:11:00,VALID,918.988,VALID,0,VALID,83.683,VALID,-0.0849042,VALID,20.2749,VALID,136,VALID,1.59432,
2005-02-21, 01:12:00,VALID,918.934,VALID,0,VALID,83.3766,VALID,-0.101885,VALID,20.3128,VALID,131,VALID,1.61031,
2005-02-21, 01:13:00,VALID,918.885,VALID,0,VALID,83.1871,VALID,-0.101885,VALID,20.3645,VALID,105,VALID,1.48292,
2005-02-21, 01:14:00,VALID,918.833,VALID,0,VALID,83.2507,VALID,-0.0849042,VALID,20.3879,VALID,89,VALID,1.19749,
2005-02-21, 01:15:00,VALID,918.798,VALID,0,VALID,83.43,VALID,-0.101885,VALID,20.3424,VALID,100,VALID,1.07195,
2005-02-21, 01:16:00,VALID,918.786,VALID,0,VALID,83.5381,VALID,-0.101885,VALID,20.3166,VALID,101,VALID,1.43786,
2005-02-21, 01:17:00,VALID,918.769,VALID,0,VALID,83.5826,VALID,-0.101885,VALID,20.287,VALID,102,VALID,1.38772,
2005-02-21, 01:18:00,VALID,918.749,VALID,0,VALID,83.6385,VALID,-0.0849042,VALID,20.2612,VALID,121,VALID,1.51217,
2005-02-21, 01:19:00,VALID,918.757,VALID,0,VALID,83.547,VALID,-0.0509425,VALID,20.2776,VALID,110,VALID,1.43605,
2005-02-21, 01:20:00,VALID,918.761,VALID,0,VALID,83.4605,VALID,-0.0849042,VALID,20.3002,VALID,100,VALID,1.59756,
2005-02-21, 01:21:00,VALID,918.733,VALID,0,VALID,83.4325,VALID,-0.0509425,VALID,20.3091,VALID,115,VALID,1.27995,
2005-02-21, 01:22:00,VALID,918.72,VALID,0,VALID,83.4872,VALID,0.0169808,VALID,20.2952,VALID,131,VALID,1.40007,
2005-02-21, 01:23:00,VALID,918.689,VALID,0,VALID,83.4669,VALID,0,VALID,20.3054,VALID,143,VALID,1.53507,
2005-02-21, 01:24:00,VALID,918.693,VALID,0,VALID,83.463,VALID,0,VALID,20.3116,VALID,143,VALID,1.92315,
2005-02-21, 01:25:00,VALID,918.692,VALID,0,VALID,83.5699,VALID,0.0339617,VALID,20.3116,VALID,153,VALID,1.35194,
2005-02-21, 01:26:00,VALID,918.673,VALID,0,VALID,83.7809,VALID,0.0339617,VALID,20.2828,VALID,139,VALID,1.50074,
2005-02-21, 01:27:00,VALID,918.657,VALID,0,VALID,83.8636,VALID,0.0169808,VALID,20.2505,VALID,144,VALID,1.41907,
2005-02-21, 01:28:00,VALID,918.651,VALID,0,VALID,83.9323,VALID,0.0509425,VALID,20.2475,VALID,153,VALID,1.67472,
2005-02-21, 01:29:00,VALID,918.637,VALID,0,VALID,83.6004,VALID,0,VALID,20.2499,VALID,147,VALID,1.883,
2005-02-21, 01:30:00,VALID,918.656,VALID,0,VALID,83.3181,VALID,0.101885,VALID,20.3178,VALID,138,VALID,1.30959,
2005-02-21, 01:31:00,VALID,918.649,VALID,0,VALID,83.168,VALID,0.0339617,VALID,20.3439,VALID,131,VALID,1.23136,
2005-02-21, 01:32:00,VALID,918.644,VALID,0,VALID,82.9353,VALID,0.0339617,VALID,20.3866,VALID,140,VALID,1.97674,
2005-02-21, 01:33:00,VALID,918.662,VALID,0,VALID,82.4636,VALID,0.0169808,VALID,20.441,VALID,132,VALID,2.10117,
2005-02-21, 01:34:00,VALID,918.672,VALID,0,VALID,82.3389,VALID,0.0169808,VALID,20.5123,VALID,137,VALID,1.31386,
2005-02-21, 01:35:00,VALID,918.692,VALID,0,VALID,82.386,VALID,0.0169808,VALID,20.5086,VALID,133,VALID,1.84952,
2005-02-21, 01:36:00,VALID,918.692,VALID,0,VALID,82.2461,VALID,0.0679233,VALID,20.5215,VALID,131,VALID,1.60156,
2005-02-21, 01:37:00,VALID,918.69,VALID,0,VALID,82.1673,VALID,0.0679233,VALID,20.5404,VALID,116,VALID,1.61541,
2005-02-21, 01:38:00,VALID,918.671,VALID,0,VALID,81.8583,VALID,0.0509425,VALID,20.5727,VALID,127,VALID,1.95668,
2005-02-21, 01:39:00,VALID,918.667,VALID,0,VALID,81.7146,VALID,0.0169808,VALID,20.5993,VALID,145,VALID,1.86417,
2005-02-21, 01:40:00,VALID,918.646,VALID,0,VALID,81.1932,VALID,0,VALID,20.6383,VALID,139,VALID,2.109,
2005-02-21, 01:41:00,VALID,918.658,VALID,0,VALID,80.6642,VALID,0.0509425,VALID,20.7344,VALID,145,VALID,1.94754,
2005-02-21, 01:42:00,VALID,918.65,VALID,0,VALID,80.3476,VALID,0.0169808,VALID,20.8286,VALID,131,VALID,1.57984,
2005-02-21, 01:43:00,VALID,918.635,VALID,0,VALID,80.1124,VALID,0.0169808,VALID,20.8873,VALID,133,VALID,1.6516,
2005-02-21, 01:44:00,VALID,918.621,VALID,0,VALID,79.8339,VALID,0,VALID,20.9285,VALID,139,VALID,1.72526,
2005-02-21, 01:45:00,VALID,918.624,VALID,0,VALID,79.3341,VALID,0.0169808,VALID,20.9578,VALID,126,VALID,1.77973,
2005-02-21, 01:46:00,VALID,918.605,VALID,0,VALID,79.1688,VALID,0,VALID,21.0028,VALID,127,VALID,1.79592,
2005-02-21, 01:47:00,VALID,918.586,VALID,0,VALID,78.7912,VALID,0.0339617,VALID,21.0483,VALID,151,VALID,1.36452,
2005-02-21, 01:48:00,VALID,918.606,VALID,0,VALID,78.8001,VALID,0.0339617,VALID,21.0703,VALID,135,VALID,1.85938,
2005-02-21, 01:49:00,VALID,918.607,VALID,0,VALID,79.0455,VALID,0.0169808,VALID,21.0806,VALID,131,VALID,1.82254,
2005-02-21, 01:50:00,VALID,918.61,VALID,0,VALID,79.4321,VALID,0.0169808,VALID,21.0254,VALID,126,VALID,1.69643,
2005-02-21, 01:51:00,VALID,918.625,VALID,0,VALID,79.6698,VALID,-0.0509425,VALID,20.9645,VALID,125,VALID,1.99556,
2005-02-21, 01:52:00,VALID,918.637,VALID,0,VALID,79.8987,VALID,-0.0849042,VALID,20.9333,VALID,127,VALID,1.3734,
2005-02-21, 01:53:00,VALID,918.653,VALID,0,VALID,80.1543,VALID,-0.0509425,VALID,20.8813,VALID,130,VALID,1.40607,
2005-02-21, 01:54:00,VALID,918.655,VALID,0,VALID,80.2573,VALID,-0.0339617,VALID,20.8393,VALID,119,VALID,1.94131,
2005-02-21, 01:55:00,VALID,918.673,VALID,0,VALID,80.3107,VALID,-0.0509425,VALID,20.8132,VALID,117,VALID,1.52144,
2005-02-21, 01:56:00,VALID,918.665,VALID,0,VALID,80.3705,VALID,-0.0509425,VALID,20.8167,VALID,133,VALID,1.53551,
2005-02-21, 01:57:00,VALID,918.667,VALID,0,VALID,80.5345,VALID,-0.101885,VALID,20.7968,VALID,128,VALID,1.5724,
2005-02-21, 01:58:00,VALID,918.668,VALID,0,VALID,80.6274,VALID,-0.0509425,VALID,20.8041,VALID,135,VALID,1.86836,
2005-02-21, 01:59:00,VALID,918.653,VALID,0,VALID,80.6566,VALID,-0.0849042,VALID,20.7906,VALID,129,VALID,1.60213,
2005-02-21, 02:00:00,VALID,918.625,VALID,0,VALID,80.7927,VALID,-0.0679233,VALID,20.7973,VALID,128,VALID,1.78889,
2005-02-21, 02:01:00,VALID,918.628,VALID,0,VALID,80.8664,VALID,-0.101885,VALID,20.7909,VALID,134,VALID,1.79358,
2005-02-21, 02:02:00,VALID,918.61,VALID,0,VALID,81.0292,VALID,-0.0849042,VALID,20.775,VALID,125,VALID,1.65488,
2005-02-21, 02:03:00,VALID,918.617,VALID,0,VALID,80.8919,VALID,-0.0509425,VALID,20.7519,VALID,137,VALID,2.0613,
2005-02-21, 02:04:00,VALID,918.598,VALID,0,VALID,80.8791,VALID,-0.0849042,VALID,20.7618,VALID,126,VALID,2.1369,
2005-02-21, 02:05:00,VALID,918.595,VALID,0,VALID,80.8461,VALID,-0.0849042,VALID,20.7742,VALID,132,VALID,1.86646,
2005-02-21, 02:06:00,VALID,918.597,VALID,0,VALID,80.9478,VALID,-0.0509425,VALID,20.7769,VALID,134,VALID,1.81548,
2005-02-21, 02:07:00,VALID,918.608,VALID,0,VALID,81.1678,VALID,0.0169808,VALID,20.7635,VALID,121,VALID,1.3756,
2005-02-21, 02:08:00,VALID,918.593,VALID,0,VALID,81.2288,VALID,0,VALID,20.7374,VALID,137,VALID,2.20465,
2005-02-21, 02:09:00,VALID,918.597,VALID,0,VALID,81.3229,VALID,0,VALID,20.725,VALID,142,VALID,1.49566,
2005-02-21, 02:10:00,VALID,918.608,VALID,0,VALID,81.5862,VALID,0,VALID,20.7024,VALID,114,VALID,1.46894,
2005-02-21, 02:11:00,VALID,918.62,VALID,0,VALID,81.7883,VALID,0,VALID,20.6599,VALID,132,VALID,1.56343,
2005-02-21, 02:12:00,VALID,918.605,VALID,0,VALID,81.9778,VALID,0,VALID,20.6017,VALID,136,VALID,1.55273,
2005-02-21, 02:13:00,VALID,918.605,VALID,0,VALID,82.1685,VALID,0.0169808,VALID,20.5595,VALID,151,VALID,1.87137,
2005-02-21, 02:14:00,VALID,918.595,VALID,0,VALID,82.0935,VALID,0.0679233,VALID,20.5538,VALID,150,VALID,1.70163,
2005-02-21, 02:15:00,VALID,918.596,VALID,0,VALID,82.1571,VALID,0.0169808,VALID,20.5468,VALID,154,VALID,1.54427,
2005-02-21, 02:16:00,VALID,918.588,VALID,0,VALID,82.2614,VALID,0,VALID,20.5277,VALID,134,VALID,1.39229,
2005-02-21, 02:17:00,VALID,918.592,VALID,0,VALID,82.4076,VALID,0,VALID,20.4949,VALID,141,VALID,1.13114,
2005-02-21, 02:18:00,VALID,918.585,VALID,0,VALID,82.6823,VALID,-0.0339617,VALID,20.4663,VALID,143,VALID,1.15716,
2005-02-21, 02:19:00,VALID,918.552,VALID,0,VALID,82.8946,VALID,0,VALID,20.4214,VALID,130,VALID,1.45163,
2005-02-21, 02:20:00,VALID,918.536,VALID,0,VALID,83.0816,VALID,0.0169808,VALID,20.3888,VALID,135,VALID,1.18314,
2005-02-21, 02:21:00,VALID,918.529,VALID,0,VALID,83.2316,VALID,-0.0169808,VALID,20.3404,VALID,127,VALID,1.4504,
2005-02-21, 02:22:00,VALID,918.536,VALID,0,VALID,83.3715,VALID,-0.0849042,VALID,20.3193,VALID,136,VALID,1.23323,
2005-02-21, 02:23:00,VALID,918.524,VALID,0,VALID,83.4872,VALID,-0.0849042,VALID,20.2765,VALID,131,VALID,1.17813,
2005-02-21, 02:24:00,VALID,918.524,VALID,0,VALID,83.6461,VALID,-0.101885,VALID,20.2512,VALID,109,VALID,0.953497,
2005-02-21, 02:25:00,VALID,918.538,VALID,0,VALID,83.9132,VALID,-0.101885,VALID,20.1963,VALID,108,VALID,1.12664,
2005-02-21, 02:26:00,VALID,918.548,VALID,0,VALID,84.1128,VALID,-0.0849042,VALID,20.1613,VALID,131,VALID,1.10193,
2005-02-21, 02:27:00,VALID,918.538,VALID,0,VALID,84.0492,VALID,-0.101885,VALID,20.1355,VALID,129,VALID,1.52133,
2005-02-21, 02:28:00,VALID,918.526,VALID,0,VALID,83.7949,VALID,-0.101885,VALID,20.1837,VALID,134,VALID,1.44531,
2005-02-21, 02:29:00,VALID,918.497,VALID,0,VALID,83.6525,VALID,-0.101885,VALID,20.2127,VALID,137,VALID,1.04836,
2005-02-21, 02:30:00,VALID,918.463,VALID,0,VALID,83.5037,VALID,-0.0679233,VALID,20.2251,VALID,160,VALID,1.42472,
2005-02-21, 02:31:00,VALID,918.457,VALID,0,VALID,83.346,VALID,-0.101885,VALID,20.2714,VALID,141,VALID,1.19141,
2005-02-21, 02:32:00,VALID,918.43,VALID,0,VALID,83.1579,VALID,-0.101885,VALID,20.2942,VALID,127,VALID,1.04052,
2005-02-21, 02:33:00,VALID,918.41,VALID,0,VALID,83.1795,VALID,-0.0849042,VALID,20.2999,VALID,124,VALID,0.869673,
2005-02-21, 02:34:00,VALID,918.388,VALID,0,VALID,83.1629,VALID,-0.0849042,VALID,20.2967,VALID,126,VALID,1.22199,
2005-02-21, 02:35:00,VALID,918.358,VALID,0,VALID,83.1083,VALID,-0.0679233,VALID,20.2937,VALID,125,VALID,0.854725,
2005-02-21, 02:36:00,VALID,918.369,VALID,0,VALID,82.9976,VALID,-0.0509425,VALID,20.3024,VALID,126,VALID,0.758743,
2005-02-21, 02:37:00,VALID,918.36,VALID,0,VALID,82.7293,VALID,0,VALID,20.3245,VALID,127,VALID,1.4283,
2005-02-21, 02:38:00,VALID,918.368,VALID,0,VALID,82.606,VALID,0,VALID,20.3764,VALID,102,VALID,0.81032,
2005-02-21, 02:39:00,VALID,918.362,VALID,0,VALID,82.5831,VALID,0.0169808,VALID,20.3697,VALID,116,VALID,1.11414,
2005-02-21, 02:40:00,VALID,918.349,VALID,0,VALID,82.6111,VALID,0.0169808,VALID,20.3598,VALID,140,VALID,0.965021,
2005-02-21, 02:41:00,VALID,918.339,VALID,0,VALID,82.6886,VALID,0,VALID,20.3538,VALID,130,VALID,1.00418,
2005-02-21, 02:42:00,VALID,918.308,VALID,0,VALID,82.9404,VALID,0,VALID,20.3051,VALID,118,VALID,0.946801,
2005-02-21, 02:43:00,VALID,918.291,VALID,0,VALID,83.1146,VALID,0,VALID,20.2728,VALID,122,VALID,0.665516,
2005-02-21, 02:44:00,VALID,918.279,VALID,0,VALID,83.2189,VALID,-0.0169808,VALID,20.2276,VALID,126,VALID,0.68843,
2005-02-21, 02:45:00,VALID,918.266,VALID,0,VALID,83.3829,VALID,0.0169808,VALID,20.195,VALID,126,VALID,0.47619,
2005-02-21, 02:46:00,VALID,918.271,VALID,0,VALID,83.8216,VALID,0,VALID,20.1409,VALID,106,VALID,0.653832,
2005-02-21, 02:47:00,VALID,918.264,VALID,0,VALID,84.4701,VALID,0,VALID,19.9819,VALID,85,VALID,0.974276,
2005-02-21, 02:48:00,VALID,918.267,VALID,0,VALID,84.9368,VALID,0,VALID,19.8893,VALID,107,VALID,1.08185,
2005-02-21, 02:49:00,VALID,918.253,VALID,0,VALID,84.8211,VALID,0.0169808,VALID,19.8627,VALID,130,VALID,1.16578,
2005-02-21, 02:50:00,VALID,918.254,VALID,0,VALID,84.5541,VALID,0.0339617,VALID,19.8985,VALID,139,VALID,1.30171,
2005-02-21, 02:51:00,VALID,918.244,VALID,0,VALID,84.2209,VALID,-0.0509425,VALID,19.9678,VALID,151,VALID,1.44077,
2005-02-21, 02:52:00,VALID,918.261,VALID,0,VALID,83.8979,VALID,-0.0339617,VALID,20.0356,VALID,142,VALID,1.27344,
2005-02-21, 02:53:00,VALID,918.279,VALID,0,VALID,83.7097,VALID,-0.0509425,VALID,20.0845,VALID,138,VALID,1.20071,
2005-02-21, 02:54:00,VALID,918.287,VALID,0,VALID,83.5546,VALID,-0.0679233,VALID,20.1072,VALID,129,VALID,1.12444,
2005-02-21, 02:55:00,VALID,918.284,VALID,0,VALID,83.43,VALID,-0.0509425,VALID,20.1171,VALID,124,VALID,1.00145,
2005-02-21, 02:56:00,VALID,918.284,VALID,0,VALID,83.4796,VALID,-0.0679233,VALID,20.0811,VALID,133,VALID,0.919876,
2005-02-21, 02:57:00,VALID,918.298,VALID,0,VALID,83.7542,VALID,-0.0849042,VALID,20.0426,VALID,124,VALID,0.931504,
2005-02-21, 02:58:00,VALID,918.3,VALID,0,VALID,83.9818,VALID,-0.0849042,VALID,19.9643,VALID,117,VALID,1.15262,
2005-02-21, 02:59:00,VALID,918.286,VALID,0,VALID,83.7924,VALID,-0.0509425,VALID,19.9618,VALID,134,VALID,1.15799,
2005-02-21, 03:00:00,VALID,918.266,VALID,0,VALID,83.992,VALID,-0.0679233,VALID,19.975,VALID,75,VALID,0.913021,
2005-02-21, 03:01:00,VALID,918.24,VALID,0,VALID,84.5617,VALID,-0.0679233,VALID,19.8674,VALID,105,VALID,1.31044,
2005-02-21, 03:02:00,VALID,918.235,VALID,0,VALID,84.5706,VALID,-0.0339617,VALID,19.8677,VALID,124,VALID,1.25707,
2005-02-21, 03:03:00,VALID,918.202,VALID,0,VALID,84.3277,VALID,-0.0339617,VALID,19.8813,VALID,143,VALID,1.25484,
2005-02-21, 03:04:00,VALID,918.201,VALID,0,VALID,84.0238,VALID,-0.0849042,VALID,19.9462,VALID,132,VALID,1.38338,
2005-02-21, 03:05:00,VALID,918.187,VALID,0,VALID,83.5788,VALID,-0.101885,VALID,19.9944,VALID,112,VALID,0.822743,
2005-02-21, 03:06:00,VALID,918.161,VALID,0,VALID,83.121,VALID,-0.0849042,VALID,20.0329,VALID,117,VALID,0.528392,
2005-02-21, 03:07:00,VALID,918.153,VALID,0,VALID,82.8743,VALID,-0.0849042,VALID,20.0619,VALID,95,VALID,1.38136,
2005-02-21, 03:08:00,VALID,918.149,VALID,0,VALID,82.6975,VALID,-0.101885,VALID,20.1072,VALID,131,VALID,0.929688,
2005-02-21, 03:09:00,VALID,918.149,VALID,0,VALID,82.4508,VALID,-0.0509425,VALID,20.133,VALID,133,VALID,1.13281,
2005-02-21, 03:10:00,VALID,918.128,VALID,0,VALID,82.11,VALID,-0.101885,VALID,20.1752,VALID,146,VALID,1.16545,
2005-02-21, 03:11:00,VALID,918.123,VALID,0,VALID,81.6701,VALID,-0.0849042,VALID,20.2165,VALID,144,VALID,0.818359,
2005-02-21, 03:12:00,VALID,918.129,VALID,0,VALID,81.5696,VALID,-0.0509425,VALID,20.3007,VALID,129,VALID,0.708576,
2005-02-21, 03:13:00,VALID,918.132,VALID,0,VALID,81.7629,VALID,-0.101885,VALID,20.3109,VALID,71,VALID,0.888849,
2005-02-21, 03:14:00,VALID,918.135,VALID,0,VALID,82.091,VALID,-0.0509425,VALID,20.2234,VALID,95,VALID,0.704327,
2005-02-21, 03:15:00,VALID,918.115,VALID,0,VALID,82.2436,VALID,-0.0679233,VALID,20.1914,VALID,104,VALID,1.03086,
2005-02-21, 03:16:00,VALID,918.122,VALID,0,VALID,82.3478,VALID,-0.0679233,VALID,20.1755,VALID,131,VALID,1.00019,
2005-02-21, 03:17:00,VALID,918.116,VALID,0,VALID,82.358,VALID,-0.0849042,VALID,20.1559,VALID,142,VALID,1.26797,
2005-02-21, 03:18:00,VALID,918.113,VALID,0,VALID,81.9193,VALID,-0.0509425,VALID,20.1526,VALID,139,VALID,1.53584,
2005-02-21, 03:19:00,VALID,918.11,VALID,0,VALID,81.5035,VALID,-0.0509425,VALID,20.204,VALID,134,VALID,1.16667,
2005-02-21, 03:20:00,VALID,918.102,VALID,0,VALID,81.1385,VALID,-0.0339617,VALID,20.2883,VALID,138,VALID,1.49945,
2005-02-21, 03:21:00,VALID,918.102,VALID,0,VALID,80.5892,VALID,-0.101885,VALID,20.3591,VALID,122,VALID,1.48601,
2005-02-21, 03:22:00,VALID,918.076,VALID,0,VALID,80.1085,VALID,-0.0849042,VALID,20.4557,VALID,133,VALID,1.61355,
2005-02-21, 03:23:00,VALID,918.081,VALID,0,VALID,79.6749,VALID,-0.0509425,VALID,20.5491,VALID,138,VALID,1.95668,
2005-02-21, 03:24:00,VALID,918.081,VALID,0,VALID,79.179,VALID,-0.0509425,VALID,20.6463,VALID,132,VALID,2.0645,
2005-02-21, 03:25:00,VALID,918.075,VALID,0,VALID,78.9527,VALID,-0.101885,VALID,20.7273,VALID,139,VALID,1.4066,
2005-02-21, 03:26:00,VALID,918.07,VALID,0,VALID,78.9908,VALID,-0.0679233,VALID,20.7526,VALID,119,VALID,1.12536,
2005-02-21, 03:27:00,VALID,918.038,VALID,0,VALID,79.1904,VALID,-0.0679233,VALID,20.7472,VALID,128,VALID,0.872456,
2005-02-21, 03:28:00,VALID,918.039,VALID,0,VALID,79.6762,VALID,-0.0849042,VALID,20.6853,VALID,98,VALID,0.667111,
2005-02-21, 03:29:00,VALID,918.041,VALID,0,VALID,80.1798,VALID,-0.0509425,VALID,20.5718,VALID,89,VALID,0.992361,
2005-02-21, 03:30:00,VALID,918.06,VALID,0,VALID,80.0094,VALID,-0.0339617,VALID,20.4875,VALID,119,VALID,1.60461,
2005-02-21, 03:31:00,VALID,918.049,VALID,0,VALID,79.4575,VALID,-0.0509425,VALID,20.5586,VALID,139,VALID,1.50109,
2005-02-21, 03:32:00,VALID,918.039,VALID,0,VALID,79.1943,VALID,-0.0679233,VALID,20.6401,VALID,138,VALID,1.28125,